Location: Newark
(51.3656°N, 14.2631°E)
Time: 18:53:29
(UTC+00:00)

Envisat - Visible Passes

Search period start: 27 February 2021 00:00
Search period end: 09 March 2021 00:00
Orbit: 764 x 766 km, 98.1° (Epoch: 27 February)

Date Brightness Start Highest point End Pass type
(mag) Time Alt. Az. Time Alt. Az. Time Alt. Az.
27 Feb 4.8 04:08:01 10° NNE 04:12:39 34° E 04:17:14 10° SSE visible
27 Feb 6.1 17:08:40 10° SW 17:12:12 19° W 17:15:45 10° NW visible
28 Feb 5.9 03:32:02 10° NE 03:35:26 18° E 03:38:48 10° SE visible
28 Feb 3.0 05:09:57 10° NNE 05:15:04 78° WNW 05:20:09 10° SSW visible
01 Mar 3.9 04:33:11 10° NNE 04:38:12 54° E 04:43:10 10° S visible
01 Mar 6.7 17:36:23 10° WSW 17:37:59 11° W 17:39:34 10° WNW visible
02 Mar 5.2 03:56:46 10° NE 04:01:07 28° E 04:05:27 10° SSE visible
03 Mar 6.0 03:21:08 10° NE 03:23:51 14° E 03:26:33 10° ESE visible
03 Mar 3.1 04:58:31 10° NNE 05:03:39 87° ESE 05:08:44 10° SSW visible
04 Mar 4.3 04:21:50 10° NNE 04:26:43 44° E 04:31:34 10° S visible
04 Mar 6.4 17:23:42 10° WSW 17:26:22 14° W 17:29:04 10° NW visible
05 Mar 5.5 03:45:33 10° NE 03:49:35 23° E 03:53:35 10° SE visible
06 Mar 6.2 03:10:35 10° ENE 03:12:14 11° E 03:13:54 10° ESE visible
06 Mar 3.4 04:47:06 10° NNE 04:52:12 72° ESE 04:57:17 10° S visible
07 Mar 4.7 04:10:31 10° NNE 04:15:13 36° E 04:19:53 10° SSE visible
08 Mar 5.8 03:34:27 10° NE 03:38:01 19° E 03:41:35 10° SE visible
